• In India
  • List of Countries
  • For 7 days
  • Water Temperature
  • Satellite Maps
  • Weather Map
  • Weather Widgets
  • user-avatar
    Login

    Hourly Weather Eisenstadt

    Today, 26 September, Tuesday

    Time Temperature Precipitation Wind Pressure Humidity
    00:00 +11°C° 0 mm 1 mps 727 mmHg 86%
    01:00 +11°C° 0 mm 1 mps 727 mmHg 87%
    02:00 +11°C° 0 mm 1 mps 727 mmHg 87%
    03:00 +11°C° 0 mm 1 mps 727 mmHg 87%
    04:00 +11°C° 0 mm 1 mps 727 mmHg 86%
    05:00 +11°C° 0.1 mm 1 mps 727 mmHg 87%
    06:00 +11°C° 0.1 mm 1 mps 727 mmHg 88%
    07:00 +12°C° 0.1 mm 1 mps 727 mmHg 89%
    08:00 +13°C° 0.1 mm 1 mps 728 mmHg 85%
    09:00 +14°C° 0.1 mm 1 mps 728 mmHg 81%
    10:00 +15°C° 0.1 mm 1 mps 728 mmHg 77%
    11:00 +17°C° 0.1 mm 2 mps 728 mmHg 72%
    12:00 +18°C° 0.1 mm 2 mps 728 mmHg 67%
    13:00 +19°C° 0.1 mm 2 mps 728 mmHg 62%
    14:00 +19°C° 0.2 mm 2 mps 728 mmHg 63%
    15:00 +19°C° 0.2 mm 2 mps 728 mmHg 65%
    16:00 +19°C° 0.2 mm 2 mps 728 mmHg 66%
    17:00 +17°C° 0.2 mm 2 mps 728 mmHg 71%
    18:00 +16°C° 0.2 mm 1 mps 728 mmHg 75%
    19:00 +14°C° 0.2 mm 1 mps 728 mmHg 80%
    20:00 +14°C° 0 mm 1 mps 728 mmHg 81%
    21:00 +13°C° 0 mm 1 mps 728 mmHg 82%
    22:00 +13°C° 0 mm 1 mps 728 mmHg 83%
    23:00 +13°C° 0 mm 1 mps 728 mmHg 84%

    Tomorrow, 27 September, Wednesday

    Time Temperature Precipitation Wind Pressure Humidity
    00:00 +12°C° 0 mm 1 mps 728 mmHg 85%
    01:00 +12°C° 0 mm 1 mps 728 mmHg 85%
    02:00 +12°C° 0 mm 1 mps 728 mmHg 86%
    03:00 +12°C° 0 mm 1 mps 728 mmHg 86%
    04:00 +11°C° 0 mm 1 mps 728 mmHg 87%
    05:00 +12°C° 0 mm 1 mps 728 mmHg 86%
    06:00 +12°C° 0 mm 1 mps 728 mmHg 85%
    07:00 +13°C° 0 mm 1 mps 729 mmHg 85%
    08:00 +14°C° 0 mm 1 mps 729 mmHg 78%
    09:00 +16°C° 0 mm 1 mps 729 mmHg 71%
    10:00 +18°C° 0 mm 2 mps 729 mmHg 64%
    11:00 +19°C° 0.1 mm 2 mps 729 mmHg 62%
    12:00 +20°C° 0.1 mm 2 mps 729 mmHg 60%
    13:00 +20°C° 0.1 mm 2 mps 729 mmHg 58%
    14:00 +20°C° 0.2 mm 2 mps 729 mmHg 60%
    15:00 +20°C° 0.2 mm 2 mps 729 mmHg 62%
    16:00 +20°C° 0.2 mm 2 mps 729 mmHg 64%
    17:00 +18°C° 0.2 mm 2 mps 729 mmHg 68%
    18:00 +18°C° 0.2 mm 1 mps 729 mmHg 72%
    19:00 +15°C° 0.2 mm 1 mps 729 mmHg 77%
    20:00 +14°C° 0 mm 1 mps 729 mmHg 78%
    21:00 +14°C° 0 mm 1 mps 730 mmHg 79%
    22:00 +13°C° 0 mm 1 mps 730 mmHg 80%
    23:00 +13°C° 0 mm 1 mps 730 mmHg 81%

    Day after tomorrow, 28 September, Thursday

    Time Temperature Precipitation Wind Pressure Humidity
    00:00 +13°C° 0 mm 2 mps 730 mmHg 81%
    01:00 +12°C° 0 mm 2 mps 730 mmHg 82%
    02:00 +12°C° 0 mm 2 mps 730 mmHg 82%
    03:00 +11°C° 0 mm 1 mps 730 mmHg 82%
    04:00 +11°C° 0 mm 1 mps 730 mmHg 82%
    05:00 +11°C° 0 mm 1 mps 730 mmHg 81%
    06:00 +11°C° 0 mm 1 mps 730 mmHg 80%
    07:00 +12°C° 0 mm 1 mps 730 mmHg 79%
    08:00 +14°C° 0 mm 2 mps 731 mmHg 71%
    09:00 +16°C° 0 mm 2 mps 731 mmHg 63%
    10:00 +18°C° 0 mm 2 mps 731 mmHg 54%
    11:00 +18°C° 0 mm 3 mps 731 mmHg 52%
    12:00 +19°C° 0 mm 3 mps 731 mmHg 49%
    13:00 +20°C° 0 mm 3 mps 731 mmHg 46%
    14:00 +19°C° 0 mm 3 mps 730 mmHg 48%
    15:00 +19°C° 0 mm 2 mps 730 mmHg 50%
    16:00 +19°C° 0 mm 2 mps 730 mmHg 52%
    17:00 +17°C° 0 mm 2 mps 730 mmHg 58%
    18:00 +15°C° 0 mm 1 mps 730 mmHg 64%
    19:00 +13°C° 0 mm 1 mps 730 mmHg 70%
    20:00 +13°C° 0 mm 1 mps 730 mmHg 71%
    21:00 +12°C° 0 mm 1 mps 730 mmHg 73%
    22:00 +12°C° 0 mm 1 mps 730 mmHg 74%
    23:00 +11°C° 0 mm 1 mps 730 mmHg 75%

    29 September, Friday

    Time Temperature Precipitation Wind Pressure Humidity
    00:00 +11°C° 0 mm 1 mps 730 mmHg 76%
    01:00 +11°C° 0 mm 1 mps 730 mmHg 77%
    02:00 +10°C° 0 mm 1 mps 729 mmHg 77%
    03:00 +10°C° 0 mm 1 mps 729 mmHg 78%
    04:00 +10°C° 0 mm 1 mps 729 mmHg 78%
    05:00 +10°C° 0 mm 1 mps 729 mmHg 77%
    06:00 +10°C° 0 mm 1 mps 729 mmHg 76%
    07:00 +11°C° 0 mm 1 mps 730 mmHg 76%
    08:00 +13°C° 0 mm 1 mps 730 mmHg 68%
    09:00 +15°C° 0 mm 1 mps 730 mmHg 61%
    10:00 +16°C° 0 mm 2 mps 730 mmHg 54%
    11:00 +17°C° 0 mm 2 mps 729 mmHg 51%
    12:00 +18°C° 0 mm 2 mps 729 mmHg 49%
    13:00 +19°C° 0 mm 2 mps 729 mmHg 47%
    14:00 +18°C° 0 mm 2 mps 729 mmHg 49%
    15:00 +18°C° 0 mm 2 mps 728 mmHg 51%
    16:00 +18°C° 0 mm 2 mps 728 mmHg 52%
    17:00 +16°C° 0 mm 2 mps 728 mmHg 58%
    18:00 +14°C° 0 mm 2 mps 728 mmHg 63%
    19:00 +12°C° 0 mm 1 mps 728 mmHg 69%
    20:00 +12°C° 0 mm 1 mps 728 mmHg 70%
    21:00 +11°C° 0 mm 1 mps 728 mmHg 72%
    22:00 +10°C° 0 mm 1 mps 728 mmHg 73%
    23:00 +10°C° 0 mm 1 mps 728 mmHg 74%

    30 September, Saturday

    Time Temperature Precipitation Wind Pressure Humidity
    00:00 +10°C° 0 mm 1 mps 728 mmHg 75%
    01:00 +9°C° 0 mm 1 mps 728 mmHg 76%
    02:00 +9°C° 0 mm 1 mps 727 mmHg 77%
    03:00 +9°C° 0 mm 1 mps 727 mmHg 77%
    04:00 +8°C° 0 mm 1 mps 727 mmHg 77%
    05:00 +9°C° 0 mm 1 mps 727 mmHg 76%
    06:00 +9°C° 0 mm 1 mps 727 mmHg 75%
    07:00 +9°C° 0 mm 1 mps 727 mmHg 74%
    08:00 +10°C° 0 mm 2 mps 727 mmHg 66%
    09:00 +13°C° 0 mm 2 mps 727 mmHg 57%
    10:00 +16°C° 0 mm 2 mps 727 mmHg 49%
    11:00 +16°C° 0 mm 3 mps 726 mmHg 47%
    12:00 +17°C° 0 mm 3 mps 726 mmHg 45%
    13:00 +17°C° 0 mm 3 mps 725 mmHg 44%
    14:00 +17°C° 0 mm 3 mps 725 mmHg 46%
    15:00 +17°C° 0 mm 3 mps 725 mmHg 47%
    16:00 +17°C° 0 mm 2 mps 724 mmHg 49%
    17:00 +15°C° 0 mm 2 mps 724 mmHg 55%
    18:00 +13°C° 0 mm 2 mps 724 mmHg 61%
    19:00 +11°C° 0 mm 1 mps 724 mmHg 67%
    20:00 +10°C° 0 mm 1 mps 724 mmHg 68%
    21:00 +10°C° 0 mm 1 mps 724 mmHg 69%
    22:00 +9°C° 0 mm 1 mps 724 mmHg 69%
    23:00 +9°C° 0 mm 1 mps 724 mmHg 70%

    1 October, Sunday

    Time Temperature Precipitation Wind Pressure Humidity
    00:00 +9°C° 0 mm 1 mps 724 mmHg 70%
    01:00 +8°C° 0 mm 1 mps 724 mmHg 71%
    02:00 +8°C° 0 mm 1 mps 724 mmHg 72%
    03:00 +8°C° 0 mm 1 mps 724 mmHg 73%
    04:00 +8°C° 0 mm 1 mps 724 mmHg 73%
    05:00 +8°C° 0 mm 1 mps 724 mmHg 73%
    06:00 +7°C° 0 mm 0 mps 724 mmHg 72%
    07:00 +8°C° 0 mm 0 mps 724 mmHg 72%
    08:00 +11°C° 0 mm 1 mps 724 mmHg 64%
    09:00 +13°C° 0 mm 1 mps 724 mmHg 57%
    10:00 +15°C° 0 mm 1 mps 725 mmHg 50%
    11:00 +16°C° 0 mm 1 mps 724 mmHg 47%
    12:00 +17°C° 0 mm 2 mps 724 mmHg 45%
    13:00 +17°C° 0 mm 2 mps 724 mmHg 43%
    14:00 +17°C° 0 mm 2 mps 724 mmHg 45%
    15:00 +18°C° 0 mm 1 mps 723 mmHg 47%
    16:00 +16°C° 0 mm 1 mps 723 mmHg 49%
    17:00 +15°C° 0 mm 1 mps 723 mmHg 54%
    18:00 +13°C° 0 mm 1 mps 723 mmHg 59%
    19:00 +11°C° 0 mm 1 mps 723 mmHg 64%
    20:00 +11°C° 0 mm 1 mps 723 mmHg 66%
    21:00 +10°C° 0 mm 1 mps 723 mmHg 68%
    22:00 +10°C° 0 mm 1 mps 723 mmHg 70%
    23:00 +9°C° 0 mm 1 mps 723 mmHg 71%
    Show more